Time,TemperatureF,DewpointF,PressureIn,WindDirection,WindDirectionDegrees,WindSpeedMPH,WindSpeedGustMPH,Humidity,HourlyPrecipIn,Conditions,Clouds,dailyrainin,SoftwareType,DateUTC
2013-08-21 00:13:00,73.0,71.0,30.14,ENE,78,0.0,0.0,93,0.00,,,0.01,,2013-08-21 05:13:00,
2013-08-21 00:23:00,72.0,70.0,30.14,ENE,78,0.0,0.0,93,0.00,,,0.01,,2013-08-21 05:23:00,
2013-08-21 00:33:00,72.0,70.0,30.14,ENE,78,0.0,0.0,93,0.00,,,0.01,,2013-08-21 05:33:00,
2013-08-21 00:52:00,72.0,70.0,30.14,ENE,78,0.0,0.0,93,0.00,,,0.01,,2013-08-21 05:52:00,
2013-08-21 01:12:00,72.0,70.0,30.13,ENE,78,0.0,0.0,94,0.00,,,0.01,,2013-08-21 06:12:00,
2013-08-21 01:22:00,72.0,70.0,30.14,ENE,78,0.0,0.0,94,0.00,,,0.01,,2013-08-21 06:22:00,
2013-08-21 01:42:00,72.0,70.0,30.13,ENE,78,0.0,0.0,95,0.00,,,0.01,,2013-08-21 06:42:00,
2013-08-21 01:52:00,72.0,70.0,30.13,ENE,78,0.0,0.0,95,0.00,,,0.01,,2013-08-21 06:52:00,
2013-08-21 02:11:00,71.0,69.0,30.13,ENE,78,0.0,1.0,95,0.00,,,0.01,,2013-08-21 07:11:00,
2013-08-21 02:21:00,71.0,69.0,30.13,ENE,78,0.0,1.0,95,0.00,,,0.01,,2013-08-21 07:21:00,
2013-08-21 02:32:00,71.0,69.0,30.13,ENE,78,0.0,1.0,95,0.00,,,0.01,,2013-08-21 07:32:00,
2013-08-21 02:53:00,71.0,69.0,30.13,ENE,78,0.0,0.0,95,0.00,,,0.01,,2013-08-21 07:53:00,
2013-08-21 03:22:00,70.0,68.0,30.13,ENE,78,0.0,2.0,95,0.00,,,0.01,,2013-08-21 08:22:00,
2013-08-21 03:52:00,70.0,68.0,30.13,ESE,118,0.0,5.0,95,0.00,,,0.01,,2013-08-21 08:52:00,
2013-08-21 04:01:00,70.0,68.0,30.13,ESE,118,0.0,5.0,95,0.00,,,0.01,,2013-08-21 09:01:00,
2013-08-21 04:11:00,70.0,68.0,30.13,ESE,118,0.0,5.0,95,0.00,,,0.01,,2013-08-21 09:11:00,
2013-08-21 04:22:00,70.0,68.0,30.13,South,186,0.0,2.0,95,0.00,,,0.01,,2013-08-21 09:22:00,
2013-08-21 04:53:00,70.0,68.0,30.13,South,188,0.0,1.0,95,0.00,,,0.01,,2013-08-21 09:53:00,
2013-08-21 05:13:00,70.0,68.0,30.14,South,188,0.0,2.0,95,0.00,,,0.01,,2013-08-21 10:13:00,
2013-08-21 05:23:00,70.0,68.0,30.14,South,188,0.0,2.0,95,0.00,,,0.01,,2013-08-21 10:23:00,
2013-08-21 05:53:00,69.0,68.0,30.15,South,188,0.0,0.0,95,0.00,,,0.01,,2013-08-21 10:53:00,
2013-08-21 06:12:00,69.0,68.0,30.15,South,188,0.0,0.0,95,0.00,,,0.01,,2013-08-21 11:12:00,
2013-08-21 06:22:00,69.0,68.0,30.15,South,188,0.0,0.0,95,0.00,,,0.01,,2013-08-21 11:22:00,
2013-08-21 06:42:00,69.0,68.0,30.16,South,188,0.0,0.0,95,0.00,,,0.01,,2013-08-21 11:42:00,
2013-08-21 06:53:00,69.0,68.0,30.16,South,188,0.0,0.0,95,0.00,,,0.01,,2013-08-21 11:53:00,
2013-08-21 07:12:00,69.0,68.0,30.17,South,188,0.0,0.0,96,0.00,,,0.01,,2013-08-21 12:12:00,
2013-08-21 07:22:00,69.0,68.0,30.17,South,188,0.0,0.0,96,0.00,,,0.01,,2013-08-21 12:22:00,
2013-08-21 07:52:00,69.0,68.0,30.17,South,188,0.0,0.0,96,0.00,,,0.01,,2013-08-21 12:52:00,
2013-08-21 08:12:00,70.0,69.0,30.18,South,188,0.0,0.0,97,0.00,,,0.01,,2013-08-21 13:12:00,
2013-08-21 08:21:00,70.0,69.0,30.18,South,188,0.0,0.0,97,0.00,,,0.01,,2013-08-21 13:21:00,
2013-08-21 08:52:00,72.0,71.0,30.18,South,188,0.0,3.0,97,0.00,,,0.01,,2013-08-21 13:52:00,
2013-08-21 09:11:00,74.0,73.0,30.19,South,188,2.0,4.0,96,0.00,,,0.01,,2013-08-21 14:11:00,
2013-08-21 09:21:00,74.0,73.0,30.19,South,188,2.0,4.0,96,0.00,,,0.01,,2013-08-21 14:21:00,
2013-08-21 09:52:00,79.0,74.0,30.19,South,182,3.0,6.0,86,0.00,,,0.01,,2013-08-21 14:52:00,
2013-08-21 10:11:00,81.0,75.0,30.20,South,182,0.0,4.0,83,0.00,,,0.01,,2013-08-21 15:11:00,
2013-08-21 10:22:00,81.0,75.0,30.20,South,182,0.0,4.0,83,0.00,,,0.01,,2013-08-21 15:22:00,
2013-08-21 10:43:00,85.0,77.0,30.20,South,174,0.0,4.0,76,0.00,,,0.01,,2013-08-21 15:43:00,
2013-08-21 10:55:00,85.0,77.0,30.20,South,174,0.0,4.0,76,0.00,,,0.01,,2013-08-21 15:55:00,
2013-08-21 11:13:00,87.0,76.0,30.21,SE,146,1.0,4.0,71,0.00,,,0.01,,2013-08-21 16:13:00,
2013-08-21 11:24:00,87.0,76.0,30.21,SE,146,1.0,4.0,71,0.00,,,0.01,,2013-08-21 16:24:00,
2013-08-21 11:53:00,89.0,76.0,30.20,SSW,194,0.0,3.0,65,0.00,,,0.00,,2013-08-21 16:53:00,
2013-08-21 12:13:00,89.0,72.0,30.19,SSW,194,3.0,7.0,58,0.00,,,0.00,,2013-08-21 17:13:00,
2013-08-21 12:23:00,89.0,72.0,30.19,SSW,194,3.0,7.0,58,0.00,,,0.00,,2013-08-21 17:23:00,
2013-08-21 12:53:00,90.0,74.0,30.19,South,189,3.0,6.0,60,0.00,,,0.00,,2013-08-21 17:53:00,
2013-08-21 13:12:00,91.0,70.0,30.17,SW,217,0.0,5.0,51,0.00,,,0.00,,2013-08-21 18:12:00,
2013-08-21 13:22:00,91.0,70.0,30.17,SW,217,0.0,5.0,51,0.00,,,0.00,,2013-08-21 18:22:00,
2013-08-21 13:52:00,92.0,71.0,30.17,NW,310,0.0,5.0,51,0.00,,,0.00,,2013-08-21 18:52:00,
2013-08-21 14:12:00,90.0,72.0,30.16,West,270,0.0,3.0,55,0.00,,,0.00,,2013-08-21 19:12:00,
2013-08-21 14:22:00,91.0,72.0,30.16,WNW,294,0.0,2.0,54,0.00,,,0.00,,2013-08-21 19:22:00,
2013-08-21 14:52:00,92.0,71.0,30.15,WSW,250,0.0,3.0,50,0.00,,,0.00,,2013-08-21 19:52:00,
2013-08-21 15:22:00,92.0,72.0,30.14,East,96,0.0,4.0,53,0.00,,,0.00,,2013-08-21 20:22:00,
2013-08-21 15:52:00,90.0,70.0,30.14,NE,46,0.0,3.0,52,0.00,,,0.00,,2013-08-21 20:52:00,
2013-08-21 16:12:00,90.0,72.0,30.14,ENE,67,2.0,3.0,55,0.00,,,0.00,,2013-08-21 21:12:00,
2013-08-21 16:21:00,90.0,72.0,30.14,ENE,67,2.0,3.0,55,0.00,,,0.00,,2013-08-21 21:21:00,
2013-08-21 16:55:00,90.0,71.0,30.12,ENE,74,0.0,3.0,54,0.00,,,0.00,,2013-08-21 21:55:00,
2013-08-21 17:24:00,87.0,71.0,30.11,East,101,4.0,7.0,59,0.00,,,0.00,,2013-08-21 22:24:00,
2013-08-21 17:53:00,86.0,71.0,30.11,East,94,0.0,5.0,62,0.00,,,0.00,,2013-08-21 22:53:00,
2013-08-21 18:13:00,86.0,72.0,30.11,East,94,0.0,0.0,63,0.00,,,0.00,,2013-08-21 23:13:00,
2013-08-21 18:22:00,86.0,72.0,30.11,East,94,0.0,0.0,63,0.00,,,0.00,,2013-08-21 23:22:00,
2013-08-21 18:53:00,86.0,74.0,30.11,East,94,1.0,4.0,67,0.00,,,0.00,,2013-08-21 23:53:00,
2013-08-21 19:12:00,85.0,74.0,30.11,East,94,0.0,0.0,69,0.00,,,0.00,,2013-08-22 00:12:00,
2013-08-21 19:22:00,85.0,74.0,30.11,East,94,0.0,0.0,69,0.00,,,0.00,,2013-08-22 00:22:00,
2013-08-21 19:42:00,84.0,74.0,30.11,East,94,0.0,0.0,72,0.00,,,0.00,,2013-08-22 00:42:00,
2013-08-21 19:52:00,84.0,74.0,30.11,East,94,0.0,0.0,72,0.00,,,0.00,,2013-08-22 00:52:00,
2013-08-21 20:11:00,82.0,73.0,30.11,South,180,0.0,2.0,75,0.00,,,0.00,,2013-08-22 01:11:00,
2013-08-21 20:22:00,82.0,73.0,30.13,South,180,0.0,4.0,75,0.00,,,0.00,,2013-08-22 01:22:00,
2013-08-21 20:52:00,81.0,73.0,30.13,SSE,164,0.0,0.0,76,0.00,,,0.00,,2013-08-22 01:52:00,
2013-08-21 21:22:00,80.0,72.0,30.16,SSE,164,0.0,1.0,78,0.00,,,0.00,,2013-08-22 02:22:00,
2013-08-21 22:12:00,77.0,72.0,30.16,SSE,164,0.0,0.0,84,0.00,,,0.00,,2013-08-22 03:12:00,
2013-08-21 22:22:00,77.0,72.0,30.16,SSE,164,0.0,0.0,84,0.00,,,0.00,,2013-08-22 03:22:00,
2013-08-21 22:45:00,76.0,72.0,30.16,SSE,164,0.0,0.0,86,0.00,,,0.00,,2013-08-22 03:45:00,
2013-08-21 22:54:00,76.0,72.0,30.16,SSE,164,0.0,0.0,86,0.00,,,0.00,,2013-08-22 03:54:00,
2013-08-21 23:23:00,76.0,72.0,30.17,SSE,164,0.0,0.0,88,0.00,,,0.00,,2013-08-22 04:23:00,
2013-08-21 23:34:00,76.0,72.0,30.17,SSE,164,0.0,0.0,88,0.00,,,0.00,,2013-08-22 04:34:00,
2013-08-21 23:54:00,75.0,72.0,30.17,SSE,164,0.0,2.0,90,0.00,,,0.00,,2013-08-22 04:54:00,